Wausau, WI

5:21 PM CDT on May 20, 2018 (GMT -0500)
Wausau Downtown

Weather History for KAUW - January, 2013

Change the Weather History Date:

Wednesday, January 2, 2013

  Actual Average Record
Temperature  
Mean Temperature 16 °F 15 °F  
Max Temperature 20 °F 23 °F 45 °F (1998)
Min Temperature 12 °F 7 °F -27 °F (1979)
Degree Days  
Heating Degree Days 49 50  
Month to date heating degree days 111 100  
Since 1 July heating degree days 3104 3386  
Cooling Degree Days 0 0  
Month to date cooling degree days 0 0  
Year to date cooling degree days 0 0  
Moisture  
Dew Point 9 °F    
Average Humidity 75    
Maximum Humidity 88    
Minimum Humidity 62    
Precipitation  
Precipitation T in 0.03 in 0.70 in (2000)
Month to date precipitation T 0.07  
Year to date precipitation T 0.07  
Snow  
Snow T in 0.40 in 8.10 in (1966)
Month to date snowfall T 0.8  
Since 1 July snowfall 24.1 23.0  
Snow Depth 8.00 in    
Sea Level Pressure  
Sea Level Pressure 30.04 in    
Wind  
Wind Speed 6 mph (South)    
Max Wind Speed 13 mph    
Max Gust Speed 15 mph    
Visibility 10 miles    
Events      
T = Trace of Precipitation, MM = Missing Value Source: NWS Daily Summary

Daily Weather History Graph

Daily Weather History Graph

Search for Another Location

Airport or City:

Astronomy

Jan. 02, 2013 Rise Set
Actual Time 7:36 AM CST 4:29 PM CST
Civil Twilight 7:03 AM CST 5:02 PM CST
Nautical Twilight 6:26 AM CST 5:39 PM CST
Astronomical Twilight 5:50 AM CST 6:15 PM CST
Moon 10:17 PM CST (1/2) 10:04 AM CST (1/2)
Length of Visible Light 9h 59m
Length of Day
8h 52m
Waning Gibbous, 75% of the Moon is Illuminated
Jan 2
Waning Gibbous
Jan 4
Last Quarter
Jan 11
New
Jan 18
First Quarter
Jan 26
Full

Hourly Weather History & Observations

Time (CST) Temp. Windchill Dew Point Humidity Pressure Visibility Wind Dir Wind Speed Gust Speed Precip Events Conditions
12:03 AM 12.2 °F 1.7 °F 6.8 °F 79% 30.01 in 10.0 mi West 6.9 mph - N/A   Overcast
12:54 AM 12.9 °F 6.9 °F 8.1 °F 81% 30.10 in 8.0 mi WNW 3.5 mph - N/A   Overcast
1:54 AM 12.9 °F 6.9 °F 9.0 °F 84% 30.09 in 8.0 mi WSW 3.5 mph - N/A   Overcast
2:54 AM 12.9 °F 5.2 °F 9.0 °F 84% 30.10 in 9.0 mi WSW 4.6 mph - N/A   Overcast
3:54 AM 14.0 °F 8.2 °F 9.0 °F 80% 30.11 in 10.0 mi SW 3.5 mph - N/A   Overcast
4:54 AM 14.0 °F 6.5 °F 9.0 °F 80% 30.10 in 10.0 mi SSW 4.6 mph - N/A   Overcast
5:54 AM 14.0 °F 5.1 °F 10.9 °F 88% 30.10 in 9.0 mi SSW 5.8 mph - N/A   Overcast
6:25 AM 15.8 °F - 10.4 °F 79% 30.00 in 10.0 mi Calm Calm - N/A   Overcast
6:54 AM 15.1 °F - 10.9 °F 84% 30.09 in 10.0 mi Calm Calm - N/A   Overcast
7:14 AM 14.0 °F 5.1 °F 10.4 °F 86% 30.00 in 10.0 mi SSE 5.8 mph - N/A   Overcast
7:54 AM 14.0 °F 5.1 °F 10.0 °F 84% 30.09 in 9.0 mi SSE 5.8 mph - N/A   Overcast
8:10 AM 14.0 °F 5.1 °F 10.4 °F 86% 30.01 in 9.0 mi SSE 5.8 mph - N/A   Overcast
8:22 AM 14.0 °F 8.2 °F 10.4 °F 86% 30.01 in 9.0 mi SSE 3.5 mph - N/A   Overcast
8:54 AM 15.1 °F 7.7 °F 12.0 °F 88% 30.10 in 9.0 mi SSE 4.6 mph - N/A   Overcast
9:31 AM 15.8 °F 6.1 °F 10.4 °F 79% 30.01 in 9.0 mi SSE 6.9 mph - N/A   Mostly Cloudy
9:54 AM 16.0 °F 6.3 °F 10.9 °F 81% 30.10 in 10.0 mi South 6.9 mph - N/A   Overcast
10:54 AM 18.0 °F 7.7 °F 9.0 °F 68% 30.08 in 10.0 mi South 8.1 mph - N/A   Overcast
11:34 AM 19.4 °F 7.2 °F 6.8 °F 58% 29.98 in 10.0 mi South 11.5 mph - N/A   Scattered Clouds
11:54 AM 19.0 °F 9.0 °F 8.1 °F 62% 30.06 in 10.0 mi SSW 8.1 mph - N/A   Mostly Cloudy
12:54 PM 19.9 °F 10.1 °F 9.0 °F 62% 30.03 in 10.0 mi South 8.1 mph - N/A   Overcast
1:54 PM 19.9 °F 10.1 °F 10.0 °F 65% 30.02 in 10.0 mi South 8.1 mph - N/A   Overcast
2:54 PM 19.9 °F 11.1 °F 9.0 °F 62% 30.03 in 10.0 mi South 6.9 mph - N/A   Overcast
3:54 PM 19.9 °F 11.1 °F 9.0 °F 62% 30.03 in 10.0 mi SE 6.9 mph - N/A   Overcast
4:54 PM 19.9 °F 12.1 °F 9.0 °F 62% 30.04 in 10.0 mi SE 5.8 mph - N/A   Overcast
5:54 PM 19.0 °F 11.1 °F 9.0 °F 65% 30.05 in 10.0 mi SSE 5.8 mph - N/A   Overcast
6:30 PM 19.4 °F 11.5 °F 8.6 °F 63% 29.98 in 10.0 mi South 5.8 mph - N/A   Overcast
6:54 PM 19.0 °F 11.1 °F 9.0 °F 65% 30.06 in 10.0 mi South 5.8 mph - N/A   Overcast
7:43 PM 17.6 °F 12.3 °F 6.8 °F 63% 29.97 in 10.0 mi SSE 3.5 mph - N/A   Scattered Clouds
7:54 PM 16.0 °F - 6.1 °F 65% 30.06 in 10.0 mi Calm Calm - N/A   Scattered Clouds
8:05 PM 17.6 °F - 6.8 °F 63% 29.97 in 10.0 mi Calm Calm - N/A   Mostly Cloudy
8:30 PM 17.6 °F 12.3 °F 8.6 °F 68% 29.96 in 10.0 mi SSE 3.5 mph - N/A   Overcast
8:45 PM 17.6 °F - 8.6 °F 68% 29.96 in 10.0 mi Calm Calm - N/A   Overcast
8:54 PM 18.0 °F 12.7 °F 8.1 °F 65% 30.04 in 10.0 mi SSE 3.5 mph - N/A   Overcast
9:54 PM 18.0 °F 11.1 °F 9.0 °F 68% 30.04 in 10.0 mi SW 4.6 mph - N/A   Overcast
10:05 PM 17.6 °F 9.3 °F 8.6 °F 68% 29.96 in 10.0 mi SW 5.8 mph - N/A   Overcast
10:54 PM 19.0 °F 9.0 °F 10.9 °F 71% 30.04 in 10.0 mi West 8.1 mph - N/A   Overcast
11:54 PM 18.0 °F 9.8 °F 10.9 °F 74% 30.04 in 8.0 mi WNW 5.8 mph - N/A   Overcast